Teterboro, NJ

12:19 AM EST on February 10, 2016 (GMT -0500)
Teterboro

Weather History for KTEB - October, 2014

Change the Weather History Date:

Thursday, October 9, 2014

  Actual Average Record
Temperature  
Mean Temperature 61 °F -  
Max Temperature 71 °F 66 °F 87 °F (2011)
Min Temperature 53 °F 46 °F 30 °F (2001)
Degree Days  
Heating Degree Days 4    
Growing Degree Days 11 (Base 50)    
Moisture  
Dew Point 37 °F    
Average Humidity 41    
Maximum Humidity 59    
Minimum Humidity 27    
Precipitation  
Precipitation 0.00 in - - ()
Sea Level Pressure  
Sea Level Pressure 29.99 in    
Wind  
Wind Speed 8 mph (WSW)    
Max Wind Speed 18 mph    
Max Gust Speed 28 mph    
Visibility 10 miles    
Events      
Averages and records for this station are not official NWS values.
T = Trace of Precipitation, MM = Missing Value Source: NWS Daily Summary

Daily Weather History Graph

Daily Weather History Graph

Search for Another Location

Airport or City:

Trip Planner

Search our weather history database for the weather conditions in past years. The results will help you decide how hot, cold, wet, or windy it might be!

Date:

Astronomy

Oct. 09, 2014 Rise Set
Actual Time 7:01 AM EDT 6:25 PM EDT
Civil Twilight 6:33 AM EDT 6:52 PM EDT
Nautical Twilight 6:01 AM EDT 7:24 PM EDT
Astronomical Twilight 5:29 AM EDT 7:56 PM EDT
Moon 7:19 PM EDT (10/9) 8:13 AM EDT (10/9)
Length of Visible Light 12h 19m
Length of Day
11h 24m
Full, 98% of the Moon is Illuminated
Oct 9
Full
Oct 15
Last Quarter
Oct 23
New
Oct 30
First Quarter
Nov 6
Full

Hourly Weather History & Observations

Time (EDT) Temp. Dew Point Humidity Pressure Visibility Wind Dir Wind Speed Gust Speed Precip Events Conditions
12:51 AM 57.9 °F 37.9 °F 47% 29.94 in 10.0 mi SSW 3.5 mph - N/A   Clear
1:51 AM 57.9 °F 37.9 °F 47% 29.95 in 10.0 mi WSW 6.9 mph - N/A   Clear
2:51 AM 55.9 °F 39.0 °F 53% 29.95 in 10.0 mi West 4.6 mph - N/A   Clear
3:51 AM 55.0 °F 39.0 °F 55% 29.95 in 10.0 mi WSW 5.8 mph - N/A   Clear
4:51 AM 55.9 °F 39.0 °F 53% 29.99 in 10.0 mi West 8.1 mph - N/A   Clear
5:51 AM 55.0 °F 39.0 °F 55% 30.01 in 10.0 mi West 5.8 mph - N/A   Clear
6:51 AM 53.1 °F 39.0 °F 59% 30.02 in 10.0 mi WSW 6.9 mph - N/A   Clear
7:51 AM 55.0 °F 39.9 °F 57% 30.03 in 10.0 mi WSW 9.2 mph - N/A   Clear
8:51 AM 57.9 °F 39.0 °F 49% 30.05 in 10.0 mi WSW 8.1 mph - N/A   Clear
9:51 AM 61.0 °F 37.9 °F 42% 30.05 in 10.0 mi WSW 11.5 mph - N/A   Clear
10:51 AM 64.0 °F 37.9 °F 38% 30.03 in 10.0 mi WSW 11.5 mph - N/A   Clear
11:51 AM 66.9 °F 36.0 °F 32% 30.01 in 10.0 mi SW 18.4 mph 27.6 mph N/A   Clear
12:51 PM 68.0 °F 33.1 °F 27% 29.98 in 10.0 mi WSW 15.0 mph 25.3 mph N/A   Clear
1:51 PM 66.9 °F 35.1 °F 31% 29.96 in 10.0 mi SW 15.0 mph 24.2 mph N/A   Clear
2:51 PM 68.0 °F 35.1 °F 30% 29.95 in 10.0 mi WSW 18.4 mph 26.5 mph N/A   Clear
3:51 PM 68.0 °F 36.0 °F 31% 29.95 in 10.0 mi WSW 12.7 mph 21.9 mph N/A   Clear
4:51 PM 69.1 °F 36.0 °F 30% 29.95 in 10.0 mi West 12.7 mph 23.0 mph N/A   Clear
5:51 PM 66.0 °F 36.0 °F 33% 29.96 in 10.0 mi West 10.4 mph 17.3 mph N/A   Clear
6:51 PM 66.0 °F 36.0 °F 33% 29.97 in 10.0 mi WSW 10.4 mph - N/A   Clear
7:51 PM 64.9 °F 36.0 °F 34% 29.98 in 10.0 mi West 9.2 mph - N/A   Clear
8:51 PM 63.0 °F 35.1 °F 35% 30.00 in 10.0 mi WSW 8.1 mph - N/A   Clear
9:51 PM 61.0 °F 35.1 °F 38% 30.00 in 10.0 mi WSW 8.1 mph - N/A   Clear
10:51 PM 59.0 °F 35.1 °F 41% 30.02 in 10.0 mi WSW 5.8 mph - N/A   Clear
11:51 PM 57.9 °F 36.0 °F 44% 30.04 in 10.0 mi West 6.9 mph - N/A   Clear